Miscellaneous Local Product
Issued by NWS Hastings, NE

Home | Current Version | Previous Version | Text Only | Print | Product List | Glossary Off
Versions: 1 2 3 4 5 6 7 8 9 10 11 12 13 14 15 16 17 18 19 20 21 22 23 24 25 26 27 28 29 30 31 32 33 34 35 36 37 38 39 40 41 42 43 44 45 46 47 48 49 50

000
AXUS43 KGID 040802
MISGRI

GID CWA HOURLY WEATHER ROUNDUP
NATIONAL WEATHER SERVICE HASTINGS NE
300 AM CDT FRI SEP 04 2015

NOTE: "FAIR" INDICATES FEW OR NO CLOUDS BELOW 12,000 FEET WITH NO
SIGNIFICANT WEATHER AND/OR OBSTRUCTIONS TO VISIBILITY.

...SOUTH CENTRAL NEBRASKA...

CITY           SKY/WX    TMP DP  RH WIND       PRES   REMARKS
GRAND ISLAND   MOCLDY    75  64  68 S17       29.81F THUNDER
HASTINGS       CLOUDY    77  62  59 S12       29.82S
KEARNEY        CLOUDY    75  61  60 S13       29.81R
ORD            CLOUDY    74  64  71 SE5       29.81R
YORK           MOCLDY    75  66  73 S13       29.84S
AURORA         MOCLDY    74  65  73 S12G17    29.82S
LEXINGTON      CLOUDY    72  64  76 N5        29.82S
HOLDREGE       CLOUDY    76  60  57 S5        29.82S
HEBRON         MOCLDY    76  64  65 S12       29.84S

...NEBRASKA PANHANDLE...

CITY           SKY/WX    TMP DP  RH WIND       PRES   REMARKS
CHADRON        CLOUDY    71  55  56 SW7       29.78F
ALLIANCE       MOCLDY    58  51  78 S5        29.85F
SCOTTSBLUFF    CLEAR     61  57  87 E6        29.86S
SIDNEY         CLEAR     54  51  90 SW5       29.90F

...WESTERN AND NORTH CENTRAL NEBRASKA...

CITY           SKY/WX    TMP DP  RH WIND       PRES   REMARKS
VALENTINE      CLOUDY    69  61  75 W10       29.81R
AINSWORTH      TSTM      72  64  76 W14       29.83R
ONEILL         MOCLDY    77  65  65 S8        29.79S
BROKEN BOW     CLOUDY    73  65  75 SE6       29.81F
IMPERIAL       MOCLDY    68  63  84 W6        29.83R
NORTH PLATTE   CLOUDY    68  61  78 SE9       29.79R
MCCOOK         PTCLDY    77  58  51 SE8       29.78F

...EASTERN NEBRASKA...

CITY           SKY/WX    TMP DP  RH WIND       PRES   REMARKS
NORFOLK        MOCLDY    77  65  66 S15       29.81S
SO SIOUX CITY  PTCLDY    74  68  81 SE9       29.82S
TEKAMAH        PTCLDY    72  69  90 SE7       29.85S
COLUMBUS       MOCLDY    75  63  64 S9        29.82F
ALBION         PTCLDY    72  64  77 SE7       29.82S
OMAHA EPPLEY   PTCLDY    75  68  78 SE15      29.87S
MILLARD        PTCLDY    74  68  81 SE6       29.86S
LINCOLN        MOCLDY    78  67  68 S12       29.86S
NEBRASKA CITY  MOCLDY    73  66  79 S8        29.89S
BEATRICE       CLOUDY    76  67  74 S13       29.86S
FALLS CITY     MOCLDY    72  68  87 S8        29.89S

...NORTHERN KANSAS...

CITY           SKY/WX    TMP DP  RH WIND       PRES   REMARKS
GOODLAND       PTCLDY    66  56  70 W8        29.84F
HILL CITY      MOCLDY    80  59  48 S12       29.80S
NORTON         SUNNY     79  54  41 SE9       29.80R
PHILLIPSBURG   CLEAR     84  61  45 CALM      29.81S
SMITH CENTER   PTCLDY    75  61  60 SE13G18   29.83R
HAYS           MOCLDY    81  57  44 S12       29.83S
RUSSELL        MOCLDY    79  60  52 S17       29.82F
CONCORDIA      MOCLDY    76  65  68 S13       29.85S
SALINA         CLOUDY    81  63  54 S17       29.86S
TOPEKA         PTCLDY    75  68  78 S8        29.91S



USA.gov is the U.S. government's official web portal to all federal, state and local government web resources and services.